Location: Bronnegerveen
(52.9548°N, 6.8388°E)
Time: 02:18:14
(UTC+00:00)

In-Cosmos 22 Rocket - Pass Details

Date: 15 June 2025
Orbit: 790 x 885 km, 81.2° (Epoch: 07 July)

Event Time Altitude Azimuth Distance (km) Brightness Sun altitude
Exits shadow 00:44:33 15° 178° (S) 2,147 5.7 -12.2°
Maximum altitude 00:49:15 68° 98° (E) 934 4.5 -12.0°
Drops below altitude 10° 00:54:59 10° 17° (NNE) 2,543 8.3 -11.7°
Sets 00:57:28 0° 15° (NNE) 3,494 9.6 -11.6°
